Year,Month,Day,Hour,Minute,Value (Times are PST for temperature in C)
2015,07,02,00,00,19.90
2015,07,02,00,01,19.90
2015,07,02,00,02,19.90
2015,07,02,00,03,19.90
2015,07,02,00,04,19.90
2015,07,02,00,05,19.90
2015,07,02,00,06,19.90
2015,07,02,00,07,19.90
2015,07,02,00,08,19.90
2015,07,02,00,09,19.90
2015,07,02,00,10,19.90
2015,07,02,00,11,19.90
2015,07,02,00,12,19.80
2015,07,02,00,13,19.80
2015,07,02,00,14,19.80
2015,07,02,00,15,19.80
2015,07,02,00,16,19.80
2015,07,02,00,17,19.80
2015,07,02,00,18,19.80
2015,07,02,00,19,19.80
2015,07,02,00,20,19.80
2015,07,02,00,21,19.80
2015,07,02,00,22,19.80
2015,07,02,00,23,19.70
2015,07,02,00,24,19.70
2015,07,02,00,25,19.70
2015,07,02,00,26,19.60
2015,07,02,00,27,19.60
2015,07,02,00,28,19.60
2015,07,02,00,29,19.60
2015,07,02,00,30,19.50
2015,07,02,00,31,19.50
2015,07,02,00,32,19.50
2015,07,02,00,33,19.50
2015,07,02,00,34,19.40
2015,07,02,00,35,19.40
2015,07,02,00,36,19.40
2015,07,02,00,37,19.40
2015,07,02,00,38,19.40
2015,07,02,00,39,19.40
2015,07,02,00,40,19.40
2015,07,02,00,41,19.40
2015,07,02,00,42,19.40
2015,07,02,00,43,19.40
2015,07,02,00,44,19.40
2015,07,02,00,45,19.40
2015,07,02,00,46,19.40
2015,07,02,00,47,19.40
2015,07,02,00,48,19.40
2015,07,02,00,49,19.40
2015,07,02,00,50,19.30
2015,07,02,00,51,19.30
2015,07,02,00,52,19.30
2015,07,02,00,53,19.30
2015,07,02,00,54,19.30
2015,07,02,00,55,19.30
2015,07,02,00,56,19.20
2015,07,02,00,57,19.20
2015,07,02,00,58,19.20
2015,07,02,00,59,19.20
2015,07,02,01,00,19.20
2015,07,02,01,01,19.20
2015,07,02,01,02,19.20
2015,07,02,01,03,19.20
2015,07,02,01,04,19.20
2015,07,02,01,05,19.20
2015,07,02,01,06,19.20
2015,07,02,01,07,19.20
2015,07,02,01,08,19.20
2015,07,02,01,09,19.20
2015,07,02,01,10,19.20
2015,07,02,01,11,19.20
2015,07,02,01,12,19.20
2015,07,02,01,13,19.20
2015,07,02,01,14,19.20
2015,07,02,01,15,19.20
2015,07,02,01,16,19.20
2015,07,02,01,17,19.20
2015,07,02,01,18,19.20
2015,07,02,01,19,19.10
2015,07,02,01,20,19.10
2015,07,02,01,21,19.10
2015,07,02,01,22,19.10
2015,07,02,01,23,19.10
2015,07,02,01,24,19.10
2015,07,02,01,25,19.10
2015,07,02,01,26,19.10
2015,07,02,01,27,19.10
2015,07,02,01,28,19.10
2015,07,02,01,29,19.10
2015,07,02,01,30,19.10
2015,07,02,01,31,19.10
2015,07,02,01,32,19.10
2015,07,02,01,33,19.10
2015,07,02,01,34,19.00
2015,07,02,01,35,19.00
2015,07,02,01,36,19.00
2015,07,02,01,37,19.10
2015,07,02,01,38,19.00
2015,07,02,01,39,19.00
2015,07,02,01,40,19.00
2015,07,02,01,41,19.10
2015,07,02,01,42,19.00
2015,07,02,01,43,19.10
2015,07,02,01,44,19.10
2015,07,02,01,45,19.10
2015,07,02,01,46,19.10
2015,07,02,01,47,19.10
2015,07,02,01,48,19.10
2015,07,02,01,49,19.10
2015,07,02,01,50,19.10
2015,07,02,01,51,19.10
2015,07,02,01,52,19.10
2015,07,02,01,53,19.10
2015,07,02,01,54,19.20
2015,07,02,01,55,19.20
2015,07,02,01,56,19.20
2015,07,02,01,57,19.20
2015,07,02,01,58,19.20
2015,07,02,01,59,19.20
2015,07,02,02,00,19.20
2015,07,02,02,01,19.20
2015,07,02,02,02,19.20
2015,07,02,02,03,19.20
2015,07,02,02,04,19.10
2015,07,02,02,05,19.10
2015,07,02,02,06,19.10
2015,07,02,02,07,19.10
2015,07,02,02,08,19.10
2015,07,02,02,09,19.10
2015,07,02,02,10,19.10
2015,07,02,02,11,19.00
2015,07,02,02,12,19.00
2015,07,02,02,13,19.00
2015,07,02,02,14,19.00
2015,07,02,02,15,18.90
2015,07,02,02,16,18.90
2015,07,02,02,17,18.90
2015,07,02,02,18,18.80
2015,07,02,02,19,18.80
2015,07,02,02,20,18.80
2015,07,02,02,21,18.80
2015,07,02,02,22,18.70
2015,07,02,02,23,18.70
2015,07,02,02,24,18.70
2015,07,02,02,25,18.70
2015,07,02,02,26,18.70
2015,07,02,02,27,18.60
2015,07,02,02,28,18.60
2015,07,02,02,29,18.60
2015,07,02,02,30,18.60
2015,07,02,02,31,18.50
2015,07,02,02,32,18.50
2015,07,02,02,33,18.50
2015,07,02,02,34,18.40
2015,07,02,02,35,18.40
2015,07,02,02,36,18.40
2015,07,02,02,37,18.40
2015,07,02,02,38,18.30
2015,07,02,02,39,18.30
2015,07,02,02,40,18.30
2015,07,02,02,41,18.30
2015,07,02,02,42,18.30
2015,07,02,02,43,18.30
2015,07,02,02,44,18.30
2015,07,02,02,45,18.30
2015,07,02,02,46,18.30
2015,07,02,02,47,18.30
2015,07,02,02,48,18.20
2015,07,02,02,49,18.20
2015,07,02,02,50,18.20
2015,07,02,02,51,18.20
2015,07,02,02,52,18.20
2015,07,02,02,53,18.10
2015,07,02,02,54,18.10
2015,07,02,02,55,18.10
2015,07,02,02,56,18.10
2015,07,02,02,57,18.10
2015,07,02,02,58,18.10
2015,07,02,02,59,18.10
2015,07,02,03,00,18.10
2015,07,02,03,01,18.10
2015,07,02,03,02,18.10
2015,07,02,03,03,18.10
2015,07,02,03,04,18.10
2015,07,02,03,05,18.00
2015,07,02,03,06,17.90
2015,07,02,03,07,17.90
2015,07,02,03,08,17.90
2015,07,02,03,09,17.80
2015,07,02,03,10,17.80
2015,07,02,03,11,17.80
2015,07,02,03,12,17.80
2015,07,02,03,13,17.70
2015,07,02,03,14,17.70
2015,07,02,03,15,17.70
2015,07,02,03,16,17.70
2015,07,02,03,17,17.70
2015,07,02,03,18,17.70
2015,07,02,03,19,17.70
2015,07,02,03,20,17.70
2015,07,02,03,21,17.70
2015,07,02,03,22,17.60
2015,07,02,03,23,17.60
2015,07,02,03,24,17.60
2015,07,02,03,25,17.60
2015,07,02,03,26,17.60
2015,07,02,03,27,17.60
2015,07,02,03,28,17.50
2015,07,02,03,29,17.50
2015,07,02,03,30,17.50
2015,07,02,03,31,17.50
2015,07,02,03,32,17.40
2015,07,02,03,33,17.40
2015,07,02,03,34,17.40
2015,07,02,03,35,17.40
2015,07,02,03,36,17.30
2015,07,02,03,37,17.30
2015,07,02,03,38,17.30
2015,07,02,03,39,17.30
2015,07,02,03,40,17.30
2015,07,02,03,41,17.30
2015,07,02,03,42,17.20
2015,07,02,03,43,17.20
2015,07,02,03,44,17.20
2015,07,02,03,45,17.20
2015,07,02,03,46,17.20
2015,07,02,03,47,17.20
2015,07,02,03,48,17.20
2015,07,02,03,49,17.20
2015,07,02,03,50,17.20
2015,07,02,03,51,17.10
2015,07,02,03,52,17.10
2015,07,02,03,53,17.10
2015,07,02,03,54,17.10
2015,07,02,03,55,17.10
2015,07,02,03,56,17.10
2015,07,02,03,57,17.10
2015,07,02,03,58,17.10
2015,07,02,03,59,17.10
2015,07,02,04,00,17.10
2015,07,02,04,01,17.10
2015,07,02,04,02,17.10
2015,07,02,04,03,17.00
2015,07,02,04,04,17.00
2015,07,02,04,05,17.00
2015,07,02,04,06,17.00
2015,07,02,04,07,17.00
2015,07,02,04,08,16.90
2015,07,02,04,09,16.90
2015,07,02,04,10,16.90
2015,07,02,04,11,16.90
2015,07,02,04,12,16.90
2015,07,02,04,13,16.90
2015,07,02,04,14,16.80
2015,07,02,04,15,16.80
2015,07,02,04,16,16.80
2015,07,02,04,17,16.80
2015,07,02,04,18,16.80
2015,07,02,04,19,16.80
2015,07,02,04,20,16.70
2015,07,02,04,21,16.70
2015,07,02,04,22,16.70
2015,07,02,04,23,16.70
2015,07,02,04,24,16.70
2015,07,02,04,25,16.70
2015,07,02,04,26,16.70
2015,07,02,04,27,16.70
2015,07,02,04,28,16.70
2015,07,02,04,29,16.70
2015,07,02,04,30,16.70
2015,07,02,04,31,16.60
2015,07,02,04,32,16.60
2015,07,02,04,33,16.60
2015,07,02,04,34,16.60
2015,07,02,04,35,16.60
2015,07,02,04,36,16.60
2015,07,02,04,37,16.60
2015,07,02,04,38,16.60
2015,07,02,04,39,16.60
2015,07,02,04,40,16.60
2015,07,02,04,41,16.60
2015,07,02,04,42,16.60
2015,07,02,04,43,16.60
2015,07,02,04,44,16.60
2015,07,02,04,45,16.60
2015,07,02,04,46,16.60
2015,07,02,04,47,16.60
2015,07,02,04,48,16.60
2015,07,02,04,49,16.50
2015,07,02,04,50,16.50
2015,07,02,04,51,16.50
2015,07,02,04,52,16.40
2015,07,02,04,53,16.40
2015,07,02,04,54,16.40
2015,07,02,04,55,16.40
2015,07,02,04,56,16.40
2015,07,02,04,57,16.40
2015,07,02,04,58,16.40
2015,07,02,04,59,16.40
2015,07,02,05,00,16.40
2015,07,02,05,01,16.50
2015,07,02,05,02,16.50
2015,07,02,05,03,16.50
2015,07,02,05,04,16.50
2015,07,02,05,05,16.50
2015,07,02,05,06,16.50
2015,07,02,05,07,16.50
2015,07,02,05,08,16.50
2015,07,02,05,09,16.50
2015,07,02,05,10,16.50
2015,07,02,05,11,16.50
2015,07,02,05,12,16.50
2015,07,02,05,13,16.50
2015,07,02,05,14,16.40
2015,07,02,05,15,16.40
2015,07,02,05,16,16.40
2015,07,02,05,17,16.40
2015,07,02,05,18,16.40
2015,07,02,05,19,16.40
2015,07,02,05,20,16.40
2015,07,02,05,21,16.40
2015,07,02,05,22,16.40
2015,07,02,05,23,16.40
2015,07,02,05,24,16.40
2015,07,02,05,25,16.40
2015,07,02,05,26,16.40
2015,07,02,05,27,16.40
2015,07,02,05,28,16.40
2015,07,02,05,29,16.40
2015,07,02,05,30,16.40
2015,07,02,05,31,16.40
2015,07,02,05,32,16.40
2015,07,02,05,33,16.40
2015,07,02,05,34,16.40
2015,07,02,05,35,16.40
2015,07,02,05,36,16.40
2015,07,02,05,37,16.40
2015,07,02,05,38,16.40
2015,07,02,05,39,16.50
2015,07,02,05,40,16.50
2015,07,02,05,41,16.50
2015,07,02,05,42,16.50
2015,07,02,05,43,16.50
2015,07,02,05,44,16.50
2015,07,02,05,45,16.50
2015,07,02,05,46,16.50
2015,07,02,05,47,16.50
2015,07,02,05,48,16.60
2015,07,02,05,49,16.60
2015,07,02,05,50,16.60
2015,07,02,05,51,16.60
2015,07,02,05,52,16.60
2015,07,02,05,53,16.60
2015,07,02,05,54,16.60
2015,07,02,05,55,16.60
2015,07,02,05,56,16.60
2015,07,02,05,57,16.60
2015,07,02,05,58,16.60
2015,07,02,05,59,16.60
2015,07,02,06,00,16.60
2015,07,02,06,01,16.60
2015,07,02,06,02,16.60
2015,07,02,06,03,16.60
2015,07,02,06,04,16.60
2015,07,02,06,05,16.60
2015,07,02,06,06,16.60
2015,07,02,06,07,16.60
2015,07,02,06,08,16.60
2015,07,02,06,09,16.60
2015,07,02,06,10,16.60
2015,07,02,06,11,16.60
2015,07,02,06,12,16.60
2015,07,02,06,13,16.60
2015,07,02,06,14,16.70
2015,07,02,06,15,16.70
2015,07,02,06,16,16.70
2015,07,02,06,17,16.70
2015,07,02,06,18,16.70
2015,07,02,06,19,16.70
2015,07,02,06,20,16.70
2015,07,02,06,21,16.70
2015,07,02,06,22,16.70
2015,07,02,06,23,16.70
2015,07,02,06,24,16.70
2015,07,02,06,25,16.70
2015,07,02,06,26,16.70
2015,07,02,06,27,16.70
2015,07,02,06,28,16.70
2015,07,02,06,29,16.70
2015,07,02,06,30,16.70
2015,07,02,06,31,16.70
2015,07,02,06,32,16.70
2015,07,02,06,33,16.70
2015,07,02,06,34,16.70
2015,07,02,06,35,16.70
2015,07,02,06,36,16.80
2015,07,02,06,37,16.80
2015,07,02,06,38,16.90
2015,07,02,06,39,16.90
2015,07,02,06,40,17.00
2015,07,02,06,41,17.10
2015,07,02,06,42,17.20
2015,07,02,06,43,17.30
2015,07,02,06,44,17.50
2015,07,02,06,45,17.60
2015,07,02,06,46,17.70
2015,07,02,06,47,17.80
2015,07,02,06,48,17.90
2015,07,02,06,49,18.00
2015,07,02,06,50,18.10
2015,07,02,06,51,18.20
2015,07,02,06,52,18.20
2015,07,02,06,53,18.30
2015,07,02,06,54,18.30
2015,07,02,06,55,18.40
2015,07,02,06,56,18.50
2015,07,02,06,57,18.50
2015,07,02,06,58,18.60
2015,07,02,06,59,18.70
2015,07,02,07,00,18.80
2015,07,02,07,01,18.90
2015,07,02,07,02,19.00
2015,07,02,07,03,19.00
2015,07,02,07,04,19.10
2015,07,02,07,05,19.20
2015,07,02,07,06,19.30
2015,07,02,07,07,19.40
2015,07,02,07,08,19.50
2015,07,02,07,09,19.60
2015,07,02,07,10,19.70
2015,07,02,07,11,19.80
2015,07,02,07,12,19.90
2015,07,02,07,13,20.00
2015,07,02,07,14,20.20
2015,07,02,07,15,20.30
2015,07,02,07,16,20.40
2015,07,02,07,17,20.50
2015,07,02,07,18,20.60
2015,07,02,07,19,20.80
2015,07,02,07,20,20.90
2015,07,02,07,21,21.00
2015,07,02,07,22,21.10
2015,07,02,07,23,21.20
2015,07,02,07,24,21.20
2015,07,02,07,25,21.30
2015,07,02,07,26,21.30
2015,07,02,07,27,21.40
2015,07,02,07,28,21.50
2015,07,02,07,29,21.60
2015,07,02,07,30,21.70
2015,07,02,07,31,21.80
2015,07,02,07,32,21.80
2015,07,02,07,33,21.90
2015,07,02,07,34,22.00
2015,07,02,07,35,22.10
2015,07,02,07,36,22.30
2015,07,02,07,37,22.40
2015,07,02,07,38,22.60
2015,07,02,07,39,22.70
2015,07,02,07,40,22.80
2015,07,02,07,41,23.00
2015,07,02,07,42,23.10
2015,07,02,07,43,23.20
2015,07,02,07,44,23.30
2015,07,02,07,45,23.40
2015,07,02,07,46,23.40
2015,07,02,07,47,23.40
2015,07,02,07,48,23.50
2015,07,02,07,49,23.50
2015,07,02,07,50,23.50
2015,07,02,07,51,23.60
2015,07,02,07,52,23.70
2015,07,02,07,53,23.70
2015,07,02,07,54,23.80
2015,07,02,07,55,23.80
2015,07,02,07,56,23.80
2015,07,02,07,57,23.80
2015,07,02,07,58,23.90
2015,07,02,07,59,23.90
2015,07,02,08,00,23.90
2015,07,02,08,01,23.90
2015,07,02,08,02,24.00
2015,07,02,08,03,24.00
2015,07,02,08,04,24.00
2015,07,02,08,05,24.10
2015,07,02,08,06,24.20
2015,07,02,08,07,24.20
2015,07,02,08,08,24.30
2015,07,02,08,09,24.40
2015,07,02,08,10,24.40
2015,07,02,08,11,24.40
2015,07,02,08,12,24.50
2015,07,02,08,13,24.50
2015,07,02,08,14,24.60
2015,07,02,08,15,24.60
2015,07,02,08,16,24.60
2015,07,02,08,17,24.50
2015,07,02,08,18,24.50
2015,07,02,08,19,24.50
2015,07,02,08,20,24.40
2015,07,02,08,21,24.40
2015,07,02,08,22,24.40
2015,07,02,08,23,24.40
2015,07,02,08,24,24.50
2015,07,02,08,25,24.50
2015,07,02,08,26,24.60
2015,07,02,08,27,24.60
2015,07,02,08,28,24.60
2015,07,02,08,29,24.70
2015,07,02,08,30,24.70
2015,07,02,08,31,24.70
2015,07,02,08,32,24.70
2015,07,02,08,33,24.70
2015,07,02,08,34,24.70
2015,07,02,08,35,24.80
2015,07,02,08,36,24.90
2015,07,02,08,37,25.00
2015,07,02,08,38,25.10
2015,07,02,08,39,25.20
2015,07,02,08,40,25.30
2015,07,02,08,41,25.40
2015,07,02,08,42,25.50
2015,07,02,08,43,25.60
2015,07,02,08,44,25.60
2015,07,02,08,45,25.60
2015,07,02,08,46,25.70
2015,07,02,08,47,25.80
2015,07,02,08,48,25.80
2015,07,02,08,49,25.90
2015,07,02,08,50,26.00
2015,07,02,08,51,26.00
2015,07,02,08,52,26.00
2015,07,02,08,53,26.00
2015,07,02,08,54,26.00
2015,07,02,08,55,25.90
2015,07,02,08,56,25.80
2015,07,02,08,57,25.80
2015,07,02,08,58,25.80
2015,07,02,08,59,25.80
2015,07,02,09,00,25.80
2015,07,02,09,01,25.80
2015,07,02,09,02,25.80
2015,07,02,09,03,25.70
2015,07,02,09,04,25.70
2015,07,02,09,05,25.70
2015,07,02,09,06,25.70
2015,07,02,09,07,25.60
2015,07,02,09,08,25.60
2015,07,02,09,09,25.60
2015,07,02,09,10,25.60
2015,07,02,09,11,25.60
2015,07,02,09,12,25.60
2015,07,02,09,13,25.60
2015,07,02,09,14,25.60
2015,07,02,09,15,25.50
2015,07,02,09,16,25.50
2015,07,02,09,17,25.50
2015,07,02,09,18,25.40
2015,07,02,09,19,25.40
2015,07,02,09,20,25.30
2015,07,02,09,21,25.30
2015,07,02,09,22,25.30
2015,07,02,09,23,25.40
2015,07,02,09,24,25.50
2015,07,02,09,25,25.60
2015,07,02,09,26,25.60
2015,07,02,09,27,25.60
2015,07,02,09,28,25.60
2015,07,02,09,29,25.50
2015,07,02,09,30,25.40
2015,07,02,09,31,25.40
2015,07,02,09,32,25.40
2015,07,02,09,33,25.40
2015,07,02,09,34,25.30
2015,07,02,09,35,25.30
2015,07,02,09,36,25.40
2015,07,02,09,37,25.40
2015,07,02,09,38,25.40
2015,07,02,09,39,25.40
2015,07,02,09,40,25.40
2015,07,02,09,41,25.30
2015,07,02,09,42,25.30
2015,07,02,09,43,25.30
2015,07,02,09,44,25.30
2015,07,02,09,45,25.40
2015,07,02,09,46,25.50
2015,07,02,09,47,25.50
2015,07,02,09,48,25.60
2015,07,02,09,49,25.60
2015,07,02,09,50,25.50
2015,07,02,09,51,25.40
2015,07,02,09,52,25.30
2015,07,02,09,53,25.20
2015,07,02,09,54,25.20
2015,07,02,09,55,25.10
2015,07,02,09,56,25.10
2015,07,02,09,57,25.10
2015,07,02,09,58,25.20
2015,07,02,09,59,25.20
2015,07,02,10,00,25.40
2015,07,02,10,01,25.40
2015,07,02,10,02,25.50
2015,07,02,10,03,25.50
2015,07,02,10,04,25.50
2015,07,02,10,05,25.50
2015,07,02,10,06,25.50
2015,07,02,10,07,25.50
2015,07,02,10,08,25.50
2015,07,02,10,09,25.50
2015,07,02,10,10,25.50
2015,07,02,10,11,25.50
2015,07,02,10,12,25.50
2015,07,02,10,13,25.50
2015,07,02,10,14,25.40
2015,07,02,10,15,25.30
2015,07,02,10,16,25.40
2015,07,02,10,17,25.40
2015,07,02,10,18,25.40
2015,07,02,10,19,25.40
2015,07,02,10,20,25.40
2015,07,02,10,21,25.50
2015,07,02,10,22,25.50
2015,07,02,10,23,25.50
2015,07,02,10,24,25.50
2015,07,02,10,25,25.60
2015,07,02,10,26,25.70
2015,07,02,10,27,25.70
2015,07,02,10,28,25.70
2015,07,02,10,29,25.60
2015,07,02,10,30,25.60
2015,07,02,10,31,25.70
2015,07,02,10,32,25.80
2015,07,02,10,33,26.00
2015,07,02,10,34,26.10
2015,07,02,10,35,26.20
2015,07,02,10,36,26.30
2015,07,02,10,37,26.40
2015,07,02,10,38,26.40
2015,07,02,10,39,26.40
2015,07,02,10,40,26.30
2015,07,02,10,41,26.30
2015,07,02,10,42,26.30
2015,07,02,10,43,26.30
2015,07,02,10,44,26.30
2015,07,02,10,45,26.20
2015,07,02,10,46,26.20
2015,07,02,10,47,26.10
2015,07,02,10,48,26.10
2015,07,02,10,49,26.20
2015,07,02,10,50,26.20
2015,07,02,10,51,26.20
2015,07,02,10,52,26.20
2015,07,02,10,53,26.20
2015,07,02,10,54,26.30
2015,07,02,10,55,26.40
2015,07,02,10,56,26.30
2015,07,02,10,57,26.30
2015,07,02,10,58,26.30
2015,07,02,10,59,26.30
2015,07,02,11,00,26.30
2015,07,02,11,01,26.40
2015,07,02,11,02,26.40
2015,07,02,11,03,26.50
2015,07,02,11,04,26.60
2015,07,02,11,05,26.70
2015,07,02,11,06,26.80
2015,07,02,11,07,26.80
2015,07,02,11,08,26.90
2015,07,02,11,09,26.90
2015,07,02,11,10,27.10
2015,07,02,11,11,27.00
2015,07,02,11,12,27.00
2015,07,02,11,13,26.90
2015,07,02,11,14,27.00
2015,07,02,11,15,27.00
2015,07,02,11,16,27.10
2015,07,02,11,17,27.20
2015,07,02,11,18,27.20
2015,07,02,11,19,27.30
2015,07,02,11,20,27.30
2015,07,02,11,21,27.30
2015,07,02,11,22,27.30
2015,07,02,11,23,27.20
2015,07,02,11,24,27.20
2015,07,02,11,25,27.20
2015,07,02,11,26,27.30
2015,07,02,11,27,27.30
2015,07,02,11,28,27.30
2015,07,02,11,29,27.40
2015,07,02,11,30,27.50
2015,07,02,11,31,27.50
2015,07,02,11,32,27.60
2015,07,02,11,33,27.60
2015,07,02,11,34,27.60
2015,07,02,11,35,27.70
2015,07,02,11,36,27.80
2015,07,02,11,37,27.80
2015,07,02,11,38,27.90
2015,07,02,11,39,28.00
2015,07,02,11,40,27.90
2015,07,02,11,41,27.90
2015,07,02,11,42,27.90
2015,07,02,11,43,27.90
2015,07,02,11,44,27.90
2015,07,02,11,45,27.80
2015,07,02,11,46,27.80
2015,07,02,11,47,27.90
2015,07,02,11,48,27.90
2015,07,02,11,49,27.90
2015,07,02,11,50,27.90
2015,07,02,11,51,27.90
2015,07,02,11,52,27.80
2015,07,02,11,53,27.70
2015,07,02,11,54,27.70
2015,07,02,11,55,27.70
2015,07,02,11,56,27.70
2015,07,02,11,57,27.70
2015,07,02,11,58,27.70
2015,07,02,11,59,27.70
2015,07,02,12,00,27.70
2015,07,02,12,01,27.70
2015,07,02,12,02,27.80
2015,07,02,12,03,27.80
2015,07,02,12,04,27.90
2015,07,02,12,05,27.90
2015,07,02,12,06,27.90
2015,07,02,12,07,27.90
2015,07,02,12,08,27.80
2015,07,02,12,09,27.80
2015,07,02,12,10,27.80
2015,07,02,12,11,27.80
2015,07,02,12,12,27.80
2015,07,02,12,13,27.80
2015,07,02,12,14,27.80
2015,07,02,12,15,27.90
2015,07,02,12,16,27.90
2015,07,02,12,17,28.00
2015,07,02,12,18,27.90
2015,07,02,12,19,27.90
2015,07,02,12,20,27.90
2015,07,02,12,21,27.90
2015,07,02,12,22,27.90
2015,07,02,12,23,27.90
2015,07,02,12,24,27.90
2015,07,02,12,25,27.90
2015,07,02,12,26,28.00
2015,07,02,12,27,28.10
2015,07,02,12,28,28.30
2015,07,02,12,29,28.20
2015,07,02,12,30,28.30
2015,07,02,12,31,28.30
2015,07,02,12,32,28.50
2015,07,02,12,33,28.60
2015,07,02,12,34,28.60
2015,07,02,12,35,28.70
2015,07,02,12,36,28.80
2015,07,02,12,37,28.80
2015,07,02,12,38,28.80
2015,07,02,12,39,28.80
2015,07,02,12,40,28.80
2015,07,02,12,41,28.80
2015,07,02,12,42,29.00
2015,07,02,12,43,29.20
2015,07,02,12,44,29.30
2015,07,02,12,45,29.30
2015,07,02,12,46,29.40
2015,07,02,12,47,29.50
2015,07,02,12,48,29.60
2015,07,02,12,49,29.50
2015,07,02,12,50,29.60
2015,07,02,12,51,29.60
2015,07,02,12,52,29.60
2015,07,02,12,53,29.60
2015,07,02,12,54,29.50
2015,07,02,12,55,29.50
2015,07,02,12,56,29.60
2015,07,02,12,57,29.50
2015,07,02,12,58,29.40
2015,07,02,12,59,29.40
2015,07,02,13,00,29.30
2015,07,02,13,01,29.20
2015,07,02,13,02,29.10
2015,07,02,13,03,29.10
2015,07,02,13,04,29.00
2015,07,02,13,05,29.00
2015,07,02,13,06,29.10
2015,07,02,13,07,29.10
2015,07,02,13,08,29.10
2015,07,02,13,09,29.10
2015,07,02,13,10,29.10
2015,07,02,13,11,29.10
2015,07,02,13,12,29.10
2015,07,02,13,13,29.10
2015,07,02,13,14,29.20
2015,07,02,13,15,29.10
2015,07,02,13,16,29.20
2015,07,02,13,17,29.30
2015,07,02,13,18,29.40
2015,07,02,13,19,29.40
2015,07,02,13,20,29.50
2015,07,02,13,21,29.50
2015,07,02,13,22,29.40
2015,07,02,13,23,29.40
2015,07,02,13,24,29.40
2015,07,02,13,25,29.50
2015,07,02,13,26,29.60
2015,07,02,13,27,29.60
2015,07,02,13,28,29.50
2015,07,02,13,29,29.60
2015,07,02,13,30,29.50
2015,07,02,13,31,29.40
2015,07,02,13,32,29.40
2015,07,02,13,33,29.50
2015,07,02,13,34,29.60
2015,07,02,13,35,29.60
2015,07,02,13,36,29.60
2015,07,02,13,37,29.70
2015,07,02,13,38,29.80
2015,07,02,13,39,29.80
2015,07,02,13,40,29.80
2015,07,02,13,41,29.80
2015,07,02,13,42,29.90
2015,07,02,13,43,29.90
2015,07,02,13,44,30.00
2015,07,02,13,45,30.00
2015,07,02,13,46,29.90
2015,07,02,13,47,29.90
2015,07,02,13,48,29.80
2015,07,02,13,49,29.90
2015,07,02,13,50,29.90
2015,07,02,13,51,30.00
2015,07,02,13,52,30.00
2015,07,02,13,53,30.10
2015,07,02,13,54,30.20
2015,07,02,13,55,30.30
2015,07,02,13,56,30.30
2015,07,02,13,57,30.30
2015,07,02,13,58,30.30
2015,07,02,13,59,30.30
2015,07,02,14,00,30.20
2015,07,02,14,01,30.10
2015,07,02,14,02,30.10
2015,07,02,14,03,30.20
2015,07,02,14,04,30.30
2015,07,02,14,05,30.30
2015,07,02,14,06,30.30
2015,07,02,14,07,30.30
2015,07,02,14,08,30.30
2015,07,02,14,09,30.30
2015,07,02,14,10,30.30
2015,07,02,14,11,30.20
2015,07,02,14,12,30.20
2015,07,02,14,13,30.20
2015,07,02,14,14,30.20
2015,07,02,14,15,30.20
2015,07,02,14,16,30.10
2015,07,02,14,17,30.10
2015,07,02,14,18,30.20
2015,07,02,14,19,30.20
2015,07,02,14,20,30.20
2015,07,02,14,21,30.20
2015,07,02,14,22,30.20
2015,07,02,14,23,30.30
2015,07,02,14,24,30.40
2015,07,02,14,25,30.40
2015,07,02,14,26,30.50
2015,07,02,14,27,30.40
2015,07,02,14,28,30.40
2015,07,02,14,29,30.40
2015,07,02,14,30,30.40
2015,07,02,14,31,30.40
2015,07,02,14,32,30.30
2015,07,02,14,33,30.40
2015,07,02,14,34,30.40
2015,07,02,14,35,30.40
2015,07,02,14,36,30.40
2015,07,02,14,37,30.50
2015,07,02,14,38,30.60
2015,07,02,14,39,30.70
2015,07,02,14,40,30.70
2015,07,02,14,41,30.70
2015,07,02,14,42,30.70
2015,07,02,14,43,30.80
2015,07,02,14,44,30.80
2015,07,02,14,45,30.80
2015,07,02,14,46,30.90
2015,07,02,14,47,30.90
2015,07,02,14,48,31.00
2015,07,02,14,49,31.00
2015,07,02,14,50,31.10
2015,07,02,14,51,31.10
2015,07,02,14,52,31.10
2015,07,02,14,53,31.00
2015,07,02,14,54,30.90
2015,07,02,14,55,30.90
2015,07,02,14,56,30.90
2015,07,02,14,57,30.90
2015,07,02,14,58,31.00
2015,07,02,14,59,31.10
2015,07,02,15,00,31.00
2015,07,02,15,01,31.00
2015,07,02,15,02,30.90
2015,07,02,15,03,30.80
2015,07,02,15,04,30.70
2015,07,02,15,05,30.80
2015,07,02,15,06,30.80
2015,07,02,15,07,30.90
2015,07,02,15,08,30.90
2015,07,02,15,09,30.80
2015,07,02,15,10,30.70
2015,07,02,15,11,30.70
2015,07,02,15,12,30.80
2015,07,02,15,13,30.70
2015,07,02,15,14,30.70
2015,07,02,15,15,30.70
2015,07,02,15,16,30.70
2015,07,02,15,17,30.70
2015,07,02,15,18,30.70
2015,07,02,15,19,30.60
2015,07,02,15,20,30.60
2015,07,02,15,21,30.70
2015,07,02,15,22,30.70
2015,07,02,15,23,30.70
2015,07,02,15,24,30.60
2015,07,02,15,25,30.60
2015,07,02,15,26,30.50
2015,07,02,15,27,30.50
2015,07,02,15,28,30.60
2015,07,02,15,29,30.60
2015,07,02,15,30,30.60
2015,07,02,15,31,30.60
2015,07,02,15,32,30.50
2015,07,02,15,33,30.50
2015,07,02,15,34,30.40
2015,07,02,15,35,30.40
2015,07,02,15,36,30.40
2015,07,02,15,37,30.40
2015,07,02,15,38,30.40
2015,07,02,15,39,30.50
2015,07,02,15,40,30.60
2015,07,02,15,41,30.60
2015,07,02,15,42,30.50
2015,07,02,15,43,30.40
2015,07,02,15,44,30.40
2015,07,02,15,45,30.40
2015,07,02,15,46,30.40
2015,07,02,15,47,30.50
2015,07,02,15,48,30.60
2015,07,02,15,49,30.70
2015,07,02,15,50,30.80
2015,07,02,15,51,30.80
2015,07,02,15,52,30.80
2015,07,02,15,53,30.80
2015,07,02,15,54,30.80
2015,07,02,15,55,30.90
2015,07,02,15,56,31.00
2015,07,02,15,57,31.00
2015,07,02,15,58,31.00
2015,07,02,15,59,31.00
2015,07,02,16,00,31.00
2015,07,02,16,01,31.10
2015,07,02,16,02,31.10
2015,07,02,16,03,31.20
2015,07,02,16,04,31.20
2015,07,02,16,05,31.30
2015,07,02,16,06,31.20
2015,07,02,16,07,31.10
2015,07,02,16,08,31.00
2015,07,02,16,09,30.90
2015,07,02,16,10,30.90
2015,07,02,16,11,31.00
2015,07,02,16,12,31.10
2015,07,02,16,13,31.10
2015,07,02,16,14,31.00
2015,07,02,16,15,30.90
2015,07,02,16,16,30.80
2015,07,02,16,17,30.70
2015,07,02,16,18,30.60
2015,07,02,16,19,30.60
2015,07,02,16,20,30.60
2015,07,02,16,21,30.60
2015,07,02,16,22,30.70
2015,07,02,16,23,30.70
2015,07,02,16,24,30.70
2015,07,02,16,25,30.70
2015,07,02,16,26,30.70
2015,07,02,16,27,30.60
2015,07,02,16,28,30.50
2015,07,02,16,29,30.30
2015,07,02,16,30,30.30
2015,07,02,16,31,30.20
2015,07,02,16,32,30.20
2015,07,02,16,33,30.20
2015,07,02,16,34,30.20
2015,07,02,16,35,30.20
2015,07,02,16,36,30.30
2015,07,02,16,37,30.30
2015,07,02,16,38,30.20
2015,07,02,16,39,30.10
2015,07,02,16,40,30.10
2015,07,02,16,41,30.10
2015,07,02,16,42,30.20
2015,07,02,16,43,30.20
2015,07,02,16,44,30.20
2015,07,02,16,45,30.20
2015,07,02,16,46,30.20
2015,07,02,16,47,30.20
2015,07,02,16,48,30.20
2015,07,02,16,49,30.20
2015,07,02,16,50,30.30
2015,07,02,16,51,30.30
2015,07,02,16,52,30.40
2015,07,02,16,53,30.40
2015,07,02,16,54,30.40
2015,07,02,16,55,30.40
2015,07,02,16,56,30.40
2015,07,02,16,57,30.40
2015,07,02,16,58,30.30
2015,07,02,16,59,30.20
2015,07,02,17,00,30.10
2015,07,02,17,01,30.10
2015,07,02,17,02,30.10
2015,07,02,17,03,30.10
2015,07,02,17,04,30.20
2015,07,02,17,05,30.20
2015,07,02,17,06,30.20
2015,07,02,17,07,30.20
2015,07,02,17,08,30.20
2015,07,02,17,09,30.20
2015,07,02,17,10,30.20
2015,07,02,17,11,30.20
2015,07,02,17,12,30.30
2015,07,02,17,13,30.30
2015,07,02,17,14,30.30
2015,07,02,17,15,30.30
2015,07,02,17,16,30.40
2015,07,02,17,17,30.40
2015,07,02,17,18,30.40
2015,07,02,17,19,30.40